| time (UTC) | temp C | wind direction | speed KPH | gust KPH | rain 1hr cm | rain 24hr cm | rain mn cm | humidity % | barometer mb |
| 20260903182735 | 21 | 289 | 4.8 | 8.0 | 0.00 | 0.00 | 0.10 | 97 | 1015.8 |
| 20260903182236 | 21 | 325 | 3.2 | 4.8 | 0.00 | 0.00 | 0.10 | 97 | 1016.1 |
| 20260903181734 | 21 | 285 | 4.8 | 4.8 | 0.00 | 0.00 | 0.10 | 97 | 1016.1 |
| 20260903180735 | 20 | 328 | 0.0 | 1.6 | 0.00 | 0.00 | 0.10 | 99 | 1015.8 |
| 20260903180234 | 20 | 297 | 3.2 | 4.8 | 0.00 | 0.00 | 0.10 | 99 | 1015.9 |
| 20260903175732 | 20 | 345 | 1.6 | 1.6 | 0.00 | 0.00 | 0.10 | 99 | 1016.1 |
| 20260903175235 | 20 | 339 | 1.6 | 1.6 | 0.00 | 0.00 | 0.10 | 99 | 1016.1 |
| 20260903174733 | 19 | 286 | 3.2 | 3.2 | 0.00 | 0.00 | 0.10 | 99 | 1016.1 |
| 20260903174232 | 19 | 273 | 3.2 | 4.8 | 0.00 | 0.00 | 0.10 | 99 | 1016.1 |
| 20260903173731 | 19 | 331 | 1.6 | 1.6 | 0.00 | 0.00 | 0.10 | 99 | 1016.1 |
| 20260903173234 | 18 | 334 | 1.6 | 3.2 | 0.00 | 0.00 | 0.10 | 99 | 1016.1 |
| 20260903172734 | 18 | 353 | 3.2 | 4.8 | 0.00 | 0.00 | 0.10 | 99 | 1016.1 |
| 20260903172231 | 18 | 294 | 3.2 | 4.8 | 0.00 | 0.00 | 0.10 | 99 | 1016.3 |
| 20260903171730 | 18 | 297 | 4.8 | 4.8 | 0.00 | 0.00 | 0.10 | 99 | 1016.1 |
| 20260903171232 | 18 | 17 | 3.2 | 3.2 | 0.00 | 0.00 | 0.10 | 99 | 1016.1 |
| 20260903170800 | 18 | 314 | 3.2 | 3.2 | 0.00 | 0.00 | 0.10 | 99 | 1016.1 |
| 20260903170229 | 18 | 0.0 | 0.0 | 0.00 | 0.00 | 0.10 | 99 | 1016.5 | |
| 20260903165731 | 18 | 298 | 3.2 | 3.2 | 0.00 | 0.00 | 0.10 | 99 | 1016.5 |
| 20260903165230 | 18 | 334 | 3.2 | 3.2 | 0.00 | 0.00 | 0.10 | 99 | 1016.5 |
| 20260903164730 | 18 | 310 | 3.2 | 3.2 | 0.00 | 0.00 | 0.10 | 99 | 1016.5 |
| 20260903164229 | 18 | 313 | 1.6 | 1.6 | 0.00 | 0.00 | 0.10 | 99 | 1016.5 |
| 20260903163732 | 17 | 335 | 3.2 | 3.2 | 0.00 | 0.00 | 0.10 | 99 | 1016.5 |
| 20260903163228 | 17 | 314 | 1.6 | 3.2 | 0.00 | 0.00 | 0.10 | 99 | 1016.5 |
| 20260903162727 | 17 | 274 | 3.2 | 4.8 | 0.00 | 0.00 | 0.10 | 99 | 1016.5 |
| 20260903162226 | 17 | 0.0 | 0.0 | 0.00 | 0.00 | 0.10 | 99 | 1016.5 | |
| 20260903161726 | 17 | 0.0 | 0.0 | 0.00 | 0.00 | 0.10 | 99 | 1016.5 | |
| 20260903161225 | 17 | 315 | 3.2 | 3.2 | 0.00 | 0.00 | 0.10 | 99 | 1016.6 |
| 20260903160726 | 17 | 335 | 1.6 | 1.6 | 0.00 | 0.00 | 0.10 | 99 | 1016.5 |
| 20260903160225 | 17 | 0.0 | 0.0 | 0.00 | 0.00 | 0.10 | 99 | 1016.8 | |
| 20260903155725 | 17 | 323 | 1.6 | 1.6 | 0.00 | 0.00 | 0.10 | 99 | 1016.8 |
| 20260903155224 | 17 | 326 | 0.0 | 1.6 | 0.00 | 0.00 | 0.10 | 99 | 1016.8 |
| 20260903154825 | 17 | 0.0 | 0.0 | 0.00 | 0.00 | 0.10 | 99 | 1016.8 | |
| 20260903154224 | 17 | 340 | 1.6 | 1.6 | 0.00 | 0.00 | 0.10 | 99 | 1016.6 |
| 20260903153823 | 17 | 354 | 3.2 | 3.2 | 0.00 | 0.00 | 0.10 | 99 | 1016.5 |
| 20260903153222 | 16 | 321 | 0.0 | 1.6 | 0.00 | 0.00 | 0.10 | 99 | 1016.8 |
| 20260903152723 | 16 | 341 | 1.6 | 1.6 | 0.00 | 0.00 | 0.10 | 99 | 1016.8 |
| 20260903152222 | 16 | 312 | 3.2 | 3.2 | 0.00 | 0.00 | 0.10 | 99 | 1016.8 |
| 20260903151722 | 16 | 312 | 1.6 | 3.2 | 0.00 | 0.00 | 0.10 | 99 | 1016.8 |
| 20260903151221 | 16 | 329 | 0.0 | 1.6 | 0.00 | 0.00 | 0.10 | 99 | 1016.8 |
| 20260903150723 | 16 | 285 | 3.2 | 4.8 | 0.00 | 0.00 | 0.10 | 99 | 1017.0 |
| 20260903150224 | 16 | 332 | 3.2 | 3.2 | 0.00 | 0.00 | 0.10 | 99 | 1016.8 |
| 20260903145721 | 16 | 331 | 1.6 | 3.2 | 0.00 | 0.00 | 0.10 | 99 | 1016.8 |
| 20260903145220 | 16 | 339 | 1.6 | 1.6 | 0.00 | 0.00 | 0.10 | 99 | 1017.0 |
| 20260903144721 | 16 | 335 | 1.6 | 1.6 | 0.00 | 0.00 | 0.10 | 99 | 1016.8 |
| 20260903144222 | 16 | 316 | 1.6 | 1.6 | 0.00 | 0.00 | 0.10 | 99 | 1017.2 |
| 20260903143719 | 16 | 329 | 0.0 | 1.6 | 0.00 | 0.00 | 0.10 | 99 | 1017.2 |
| 20260903143220 | 16 | 329 | 1.6 | 1.6 | 0.00 | 0.00 | 0.10 | 99 | 1017.2 |
| 20260903142719 | 16 | 328 | 1.6 | 1.6 | 0.00 | 0.00 | 0.10 | 99 | 1017.2 |
| 20260903142219 | 16 | 0.0 | 0.0 | 0.00 | 0.00 | 0.10 | 99 | 1017.2 | |
| 20260903141908 | 16 | 339 | 0.0 | 1.6 | 0.00 | 0.00 | 0.10 | 99 | 1017.2 |
| 20260903141219 | 15 | 334 | 0.0 | 1.6 | 0.00 | 0.00 | 0.10 | 99 | 1017.2 |
| 20260903140718 | 15 | 341 | 1.6 | 3.2 | 0.00 | 0.00 | 0.10 | 99 | 1017.0 |
| 20260903140218 | 15 | 336 | 1.6 | 1.6 | 0.00 | 0.00 | 0.10 | 99 | 1017.0 |
| 20260903135718 | 15 | 344 | 1.6 | 3.2 | 0.00 | 0.00 | 0.10 | 99 | 1017.2 |
| 20260903134717 | 15 | 5 | 3.2 | 4.8 | 0.00 | 0.00 | 0.10 | 99 | 1017.2 |
| 20260903134216 | 15 | 358 | 1.6 | 3.2 | 0.00 | 0.00 | 0.10 | 99 | 1017.2 |
| 20260903133745 | 15 | 346 | 1.6 | 3.2 | 0.00 | 0.00 | 0.10 | 99 | 1017.2 |
| 20260903133246 | 15 | 14 | 3.2 | 3.2 | 0.00 | 0.00 | 0.10 | 99 | 1017.2 |
| 20260903132745 | 15 | 326 | 1.6 | 1.6 | 0.00 | 0.00 | 0.10 | 99 | 1017.2 |
| 20260903132244 | 15 | 326 | 3.2 | 3.2 | 0.00 | 0.00 | 0.10 | 99 | 1017.2 |
| 20260903131745 | 15 | 347 | 0.0 | 1.6 | 0.00 | 0.00 | 0.10 | 99 | 1017.2 |
| 20260903131244 | 15 | 336 | 0.0 | 1.6 | 0.00 | 0.00 | 0.10 | 99 | 1017.2 |
| 20260903130743 | 15 | 352 | 3.2 | 3.2 | 0.00 | 0.00 | 0.10 | 99 | 1017.2 |
| 20260903130243 | 15 | 344 | 1.6 | 1.6 | 0.00 | 0.00 | 0.10 | 99 | 1017.2 |
| 20260903125742 | 15 | 12 | 3.2 | 4.8 | 0.00 | 0.00 | 0.10 | 99 | 1017.2 |
| 20260903125243 | 15 | 346 | 3.2 | 3.2 | 0.00 | 0.00 | 0.10 | 99 | 1017.2 |
| 20260903124844 | 15 | 330 | 1.6 | 3.2 | 0.00 | 0.00 | 0.10 | 99 | 1017.3 |
| 20260903124242 | 15 | 339 | 1.6 | 3.2 | 0.00 | 0.00 | 0.10 | 99 | 1017.3 |
| 20260903123741 | 15 | 7 | 4.8 | 4.8 | 0.00 | 0.00 | 0.10 | 99 | 1017.5 |
| 20260903123242 | 15 | 323 | 3.2 | 4.8 | 0.00 | 0.00 | 0.10 | 99 | 1017.5 |
| 20260903114739 | 15 | 323 | 3.2 | 3.2 | 0.00 | 0.00 | 0.10 | 99 | 1017.9 |
| 20260903114238 | 15 | 341 | 3.2 | 4.8 | 0.00 | 0.00 | 0.10 | 99 | 1017.9 |
| 20260903113238 | 15 | 136 | 6.4 | 9.7 | 0.00 | 0.00 | 0.10 | 99 | 1017.9 |
| 20260903112738 | 15 | 81 | 4.8 | 8.0 | 0.00 | 0.00 | 0.10 | 99 | 1017.9 |
| 20260903112337 | 15 | 299 | 3.2 | 3.2 | 0.00 | 0.00 | 0.10 | 99 | 1017.9 |
| 20260903111736 | 15 | 58 | 3.2 | 8.0 | 0.00 | 0.00 | 0.10 | 99 | 1017.9 |
| 20260903111235 | 15 | 164 | 4.8 | 9.7 | 0.00 | 0.00 | 0.10 | 99 | 1017.9 |
| 20260903110736 | 15 | 213 | 4.8 | 8.0 | 0.00 | 0.00 | 0.10 | 99 | 1017.9 |
| 20260903110235 | 15 | 254 | 4.8 | 4.8 | 0.00 | 0.00 | 0.10 | 99 | 1017.9 |
| 20260903105734 | 15 | 50 | 4.8 | 4.8 | 0.00 | 0.00 | 0.10 | 99 | 1017.9 |
| 20260903105236 | 14 | 268 | 1.6 | 3.2 | 0.00 | 0.00 | 0.10 | 99 | 1017.9 |
| 20260903104735 | 14 | 282 | 3.2 | 4.8 | 0.00 | 0.00 | 0.10 | 99 | 1017.9 |
| 20260903104234 | 14 | 29 | 4.8 | 4.8 | 0.00 | 0.00 | 0.10 | 99 | 1017.9 |
| 20260903103733 | 14 | 335 | 3.2 | 3.2 | 0.00 | 0.00 | 0.10 | 99 | 1017.7 |
| 20260903103232 | 14 | 9 | 3.2 | 4.8 | 0.00 | 0.00 | 0.10 | 99 | 1017.5 |
| 20260903102734 | 14 | 313 | 1.6 | 3.2 | 0.00 | 0.00 | 0.10 | 99 | 1017.5 |
| 20260903102233 | 14 | 118 | 4.8 | 8.0 | 0.00 | 0.00 | 0.10 | 99 | 1017.5 |
| 20260903101732 | 14 | 6 | 3.2 | 4.8 | 0.00 | 0.00 | 0.10 | 99 | 1017.5 |
| 20260903101231 | 14 | 164 | 4.8 | 9.7 | 0.00 | 0.00 | 0.10 | 99 | 1017.9 |
| 20260903100734 | 14 | 318 | 3.2 | 3.2 | 0.00 | 0.00 | 0.10 | 99 | 1017.5 |
| 20260903100232 | 14 | 105 | 4.8 | 8.0 | 0.00 | 0.00 | 0.10 | 99 | 1017.9 |
| 20260903095731 | 14 | 341 | 1.6 | 3.2 | 0.00 | 0.00 | 0.10 | 99 | 1017.9 |
| 20260903095230 | 14 | 326 | 3.2 | 4.8 | 0.00 | 0.00 | 0.08 | 99 | 1017.9 |
| 20260903094731 | 14 | 32 | 3.2 | 4.8 | 0.00 | 0.00 | 0.08 | 99 | 1017.9 |
| 20260903094235 | 14 | 112 | 6.4 | 8.0 | 0.00 | 0.00 | 0.08 | 99 | 1017.9 |
| 20260903093735 | 14 | 43 | 4.8 | 8.0 | 0.00 | 0.00 | 0.08 | 99 | 1017.9 |
| 20260903093229 | 14 | 46 | 4.8 | 4.8 | 0.00 | 0.00 | 0.08 | 99 | 1017.9 |
| 20260903092728 | 14 | 228 | 4.8 | 4.8 | 0.00 | 0.00 | 0.08 | 99 | 1017.5 |
| 20260903092229 | 14 | 90 | 6.4 | 9.7 | 0.00 | 0.00 | 0.08 | 99 | 1017.9 |
| 20260903091230 | 14 | 49 | 4.8 | 9.7 | 0.00 | 0.00 | 0.08 | 99 | 1017.5 |
| 20260903090727 | 14 | 167 | 8.0 | 11.3 | 0.00 | 0.00 | 0.08 | 99 | 1017.9 |
| 20260903085227 | 14 | 59 | 11.3 | 17.7 | 0.00 | 0.00 | 0.08 | 99 | 1017.9 |
| 20260903084728 | 14 | 4 | 4.8 | 4.8 | 0.00 | 0.00 | 0.08 | 99 | 1017.9 |
| 20260903084227 | 14 | 50 | 4.8 | 8.0 | 0.00 | 0.00 | 0.08 | 99 | 1018.2 |
| 20260903083726 | 14 | 173 | 8.0 | 9.7 | 0.00 | 0.00 | 0.08 | 99 | 1018.2 |
| 20260903083225 | 14 | 341 | 3.2 | 4.8 | 0.00 | 0.00 | 0.08 | 99 | 1018.4 |
| 20260903082724 | 14 | 74 | 6.4 | 8.0 | 0.00 | 0.00 | 0.08 | 99 | 1018.2 |
| 20260903081725 | 14 | 21 | 1.6 | 3.2 | 0.00 | 0.00 | 0.08 | 99 | 1018.4 |
| 20260903080225 | 14 | 8 | 1.6 | 3.2 | 0.00 | 0.00 | 0.08 | 99 | 1018.2 |
| 20260903075728 | 14 | 325 | 1.6 | 3.2 | 0.00 | 0.00 | 0.08 | 99 | 1018.2 |
| 20260903075223 | 14 | 354 | 3.2 | 4.8 | 0.00 | 0.00 | 0.08 | 99 | 1018.6 |
| 20260903074223 | 14 | 337 | 0.0 | 1.6 | 0.00 | 0.00 | 0.08 | 99 | 1018.4 |
| 20260903073722 | 14 | 8 | 3.2 | 4.8 | 0.00 | 0.00 | 0.08 | 99 | 1018.6 |
| 20260903073221 | 14 | 26 | 4.8 | 8.0 | 0.00 | 0.00 | 0.08 | 99 | 1018.6 |
| 20260903072720 | 14 | 7 | 3.2 | 3.2 | 0.00 | 0.00 | 0.08 | 99 | 1018.6 |
| 20260903072222 | 14 | 355 | 1.6 | 3.2 | 0.00 | 0.00 | 0.08 | 99 | 1018.6 |
| 20260903071721 | 14 | 11 | 4.8 | 4.8 | 0.00 | 0.00 | 0.08 | 99 | 1018.6 |
| 20260903071221 | 14 | 76 | 4.8 | 8.0 | 0.00 | 0.00 | 0.08 | 99 | 1018.6 |
| 20260903070719 | 14 | 163 | 4.8 | 9.7 | 0.00 | 0.00 | 0.08 | 99 | 1018.6 |
| 20260903070218 | 14 | 11 | 3.2 | 4.8 | 0.00 | 0.00 | 0.08 | 99 | 1018.6 |
| 20260903065720 | 14 | 325 | 0.0 | 1.6 | 0.00 | 0.00 | 0.08 | 99 | 1018.7 |
| 20260903065219 | 14 | 340 | 1.6 | 3.2 | 0.00 | 0.00 | 0.08 | 99 | 1018.6 |
| 20260903064718 | 14 | 351 | 3.2 | 4.8 | 0.00 | 0.00 | 0.08 | 99 | 1018.6 |
| 20260903063718 | 14 | 79 | 6.4 | 9.7 | 0.00 | 0.00 | 0.08 | 99 | 1018.6 |
| 20260903063217 | 14 | 4 | 3.2 | 4.8 | 0.00 | 0.00 | 0.08 | 99 | 1018.6 |
| 20260903062717 | 14 | 9 | 3.2 | 4.8 | 0.00 | 0.00 | 0.08 | 99 | 1018.6 |
| 20260903062216 | 14 | 123 | 6.4 | 9.7 | 0.00 | 0.00 | 0.08 | 99 | 1018.6 |
| 20260903061858 | 15 | 66 | 8.0 | 14.5 | 0.00 | 0.00 | 0.08 | 99 | 1018.6 |
| 20260903050742 | 16 | 25 | 4.8 | 8.0 | 0.00 | 0.00 | 0.00 | 91 | 1020.0 |
| 20260903050241 | 16 | 346 | 4.8 | 8.0 | 0.00 | 0.00 | 0.00 | 91 | 1020.1 |
| 20260903045742 | 16 | 40 | 6.4 | 8.0 | 0.00 | 0.00 | 0.00 | 90 | 1020.0 |
| 20260903045241 | 16 | 172 | 9.7 | 12.9 | 0.00 | 0.00 | 0.00 | 89 | 1020.0 |
| 20260903044740 | 16 | 95 | 8.0 | 9.7 | 0.00 | 0.00 | 0.00 | 89 | 1020.0 |
| 20260903044240 | 16 | 114 | 12.9 | 14.5 | 0.00 | 0.00 | 0.00 | 89 | 1019.8 |
| 20260903043739 | 16 | 57 | 6.4 | 8.0 | 0.00 | 0.00 | 0.00 | 89 | 1020.0 |
| 20260903043240 | 16 | 64 | 4.8 | 8.0 | 0.00 | 0.00 | 0.00 | 89 | 1020.0 |
| 20260903042739 | 16 | 52 | 3.2 | 4.8 | 0.00 | 0.00 | 0.00 | 90 | 1020.0 |
| 20260903042238 | 16 | 138 | 11.3 | 16.1 | 0.00 | 0.00 | 0.00 | 89 | 1020.0 |
| 20260903041738 | 16 | 171 | 9.7 | 11.3 | 0.00 | 0.00 | 0.00 | 90 | 1020.0 |
| 20260903041341 | 16 | 158 | 8.0 | 12.9 | 0.00 | 0.00 | 0.00 | 90 | 1020.3 |
| 20260903040738 | 16 | 192 | 4.8 | 8.0 | 0.00 | 0.00 | 0.00 | 90 | 1020.3 |
| 20260903040239 | 16 | 86 | 6.4 | 8.0 | 0.00 | 0.00 | 0.00 | 91 | 1020.3 |
| 20260903035737 | 16 | 21 | 4.8 | 4.8 | 0.00 | 0.00 | 0.00 | 92 | 1020.7 |
| 20260903035238 | 16 | 149 | 4.8 | 8.0 | 0.00 | 0.00 | 0.00 | 92 | 1020.7 |
| 20260903034738 | 16 | 249 | 6.4 | 8.0 | 0.00 | 0.00 | 0.00 | 92 | 1020.3 |
| 20260903034236 | 16 | 249 | 4.8 | 8.0 | 0.00 | 0.00 | 0.00 | 93 | 1020.3 |
| 20260903033735 | 16 | 115 | 6.4 | 8.0 | 0.00 | 0.00 | 0.00 | 93 | 1020.3 |
| 20260903033236 | 16 | 119 | 4.8 | 8.0 | 0.00 | 0.00 | 0.00 | 93 | 1020.3 |
| 20260903032736 | 16 | 54 | 4.8 | 8.0 | 0.00 | 0.00 | 0.00 | 93 | 1020.7 |
| 20260903032237 | 16 | 354 | 3.2 | 4.8 | 0.00 | 0.00 | 0.00 | 94 | 1020.3 |
| 20260903031737 | 16 | 353 | 3.2 | 3.2 | 0.00 | 0.00 | 0.00 | 94 | 1020.7 |
| 20260903031336 | 16 | 178 | 6.4 | 11.3 | 0.00 | 0.00 | 0.00 | 94 | 1021.0 |
| 20260903030735 | 16 | 338 | 4.8 | 8.0 | 0.00 | 0.00 | 0.00 | 94 | 1020.8 |
| 20260903030234 | 16 | 96 | 6.4 | 8.0 | 0.00 | 0.00 | 0.00 | 95 | 1021.0 |
| 20260903025734 | 16 | 176 | 4.8 | 8.0 | 0.00 | 0.00 | 0.00 | 95 | 1021.0 |
| 20260903025234 | 16 | 44 | 6.4 | 9.7 | 0.00 | 0.00 | 0.00 | 96 | 1021.0 |
| 20260903024733 | 16 | 343 | 3.2 | 4.8 | 0.00 | 0.00 | 0.00 | 96 | 1020.8 |
| 20260903024232 | 16 | 323 | 3.2 | 4.8 | 0.00 | 0.00 | 0.00 | 96 | 1021.0 |
| 20260903023733 | 16 | 357 | 1.6 | 3.2 | 0.00 | 0.00 | 0.00 | 97 | 1021.0 |
| 20260903023232 | 16 | 20 | 4.8 | 4.8 | 0.00 | 0.00 | 0.00 | 98 | 1021.0 |
| 20260903022732 | 16 | 8 | 4.8 | 8.0 | 0.00 | 0.00 | 0.00 | 98 | 1021.0 |
| 20260903022231 | 16 | 338 | 3.2 | 3.2 | 0.00 | 0.00 | 0.00 | 98 | 1021.4 |
| 20260903021730 | 16 | 12 | 4.8 | 4.8 | 0.00 | 0.00 | 0.00 | 98 | 1021.0 |
| 20260903021231 | 16 | 184 | 3.2 | 8.0 | 0.00 | 0.00 | 0.00 | 98 | 1021.0 |
| 20260903020730 | 16 | 96 | 4.8 | 8.0 | 0.00 | 0.00 | 0.00 | 98 | 1021.4 |
| 20260903020231 | 16 | 19 | 4.8 | 8.0 | 0.00 | 0.00 | 0.00 | 97 | 1021.4 |
| 20260903015830 | 16 | 335 | 0.0 | 1.6 | 0.00 | 0.00 | 0.00 | 97 | 1021.4 |
| 20260903015230 | 16 | 350 | 1.6 | 3.2 | 0.00 | 0.00 | 0.00 | 97 | 1021.5 |
| 20260903014729 | 16 | 43 | 4.8 | 8.0 | 0.00 | 0.00 | 0.00 | 97 | 1021.4 |
| 20260903014228 | 16 | 358 | 1.6 | 3.2 | 0.00 | 0.00 | 0.00 | 96 | 1021.7 |
| 20260903013729 | 16 | 319 | 3.2 | 3.2 | 0.00 | 0.00 | 0.00 | 96 | 1021.7 |
| 20260903013228 | 16 | 9 | 3.2 | 4.8 | 0.00 | 0.00 | 0.00 | 96 | 1021.7 |
| 20260903012727 | 16 | 91 | 8.0 | 9.7 | 0.00 | 0.00 | 0.00 | 95 | 1021.7 |
| 20260903012227 | 16 | 31 | 3.2 | 4.8 | 0.00 | 0.00 | 0.00 | 95 | 1021.7 |
| 20260903011726 | 16 | 39 | 4.8 | 4.8 | 0.00 | 0.00 | 0.00 | 95 | 1022.1 |
| 20260903011227 | 16 | 114 | 12.9 | 14.5 | 0.00 | 0.00 | 0.00 | 95 | 1021.7 |
| 20260903010726 | 16 | 0.0 | 0.0 | 0.00 | 0.00 | 0.00 | 95 | 1022.1 | |
| 20260903010225 | 16 | 270 | 6.4 | 8.0 | 0.00 | 0.00 | 0.00 | 94 | 1022.1 |
| 20260903005725 | 16 | 134 | 4.8 | 8.0 | 0.00 | 0.00 | 0.00 | 94 | 1021.7 |
| 20260903005224 | 16 | 170 | 9.7 | 11.3 | 0.00 | 0.00 | 0.00 | 94 | 1021.4 |
| 20260903004725 | 17 | 196 | 4.8 | 8.0 | 0.00 | 0.00 | 0.00 | 94 | 1021.4 |
| 20260903004227 | 17 | 217 | 6.4 | 9.7 | 0.00 | 0.00 | 0.00 | 93 | 1021.4 |
| 20260903003827 | 17 | 187 | 6.4 | 12.9 | 0.00 | 0.00 | 0.00 | 93 | 1021.4 |
| 20260903003223 | 17 | 220 | 4.8 | 8.0 | 0.00 | 0.00 | 0.00 | 93 | 1021.4 |
| 20260903002824 | 17 | 28 | 4.8 | 8.0 | 0.00 | 0.00 | 0.00 | 93 | 1021.4 |
| 20260903002223 | 17 | 82 | 6.4 | 11.3 | 0.00 | 0.00 | 0.00 | 93 | 1021.0 |
| 20260903001724 | 17 | 169 | 4.8 | 4.8 | 0.00 | 0.00 | 0.00 | 93 | 1021.0 |
| 20260903001221 | 17 | 17 | 3.2 | 4.8 | 0.00 | 0.00 | 0.00 | 93 | 1020.8 |
| 20260903000723 | 17 | 163 | 6.4 | 9.7 | 0.00 | 0.00 | 0.00 | 93 | 1021.0 |
| 20260902235721 | 17 | 126 | 11.3 | 16.1 | 0.00 | 0.00 | 0.00 | 93 | 1021.0 |
| 20260902235221 | 17 | 153 | 11.3 | 12.9 | 0.00 | 0.00 | 0.00 | 94 | 1021.0 |
| 20260902234721 | 17 | 153 | 11.3 | 12.9 | 0.00 | 0.00 | 0.00 | 94 | 1021.4 |
| 20260902233821 | 17 | 102 | 8.0 | 11.3 | 0.00 | 0.00 | 0.00 | 99 | 1021.4 |
| 20260902233222 | 17 | 102 | 8.0 | 11.3 | 0.00 | 0.00 | 0.00 | 99 | 1021.4 |
| 20260902232720 | 17 | 3 | 4.8 | 8.0 | 0.00 | 0.00 | 0.00 | 99 | 1021.4 |
| 20260902232321 | 17 | 316 | 3.2 | 3.2 | 0.00 | 0.00 | 0.00 | 99 | 1021.7 |
| 20260902231718 | 17 | 359 | 3.2 | 3.2 | 0.00 | 0.00 | 0.00 | 99 | 1021.7 |
| 20260902231319 | 17 | 9 | 3.2 | 3.2 | 0.00 | 0.00 | 0.00 | 99 | 1022.1 |
| 20260902230717 | 17 | 322 | 1.6 | 3.2 | 0.00 | 0.00 | 0.00 | 99 | 1022.2 |
| 20260902230218 | 17 | 337 | 1.6 | 1.6 | 0.00 | 0.00 | 0.00 | 99 | 1022.4 |
| 20260902225820 | 17 | 25 | 3.2 | 4.8 | 0.00 | 0.00 | 0.00 | 99 | 1022.4 |
| 20260902225216 | 17 | 0.0 | 0.0 | 0.00 | 0.00 | 0.00 | 99 | 1022.8 | |
| 20260902224717 | 17 | 340 | 1.6 | 3.2 | 0.00 | 0.00 | 0.00 | 99 | 1022.8 |
| 20260902224320 | 17 | 336 | 1.6 | 3.2 | 0.00 | 0.00 | 0.00 | 99 | 1022.8 |
| 20260902223746 | 17 | 342 | 1.6 | 1.6 | 0.00 | 0.00 | 0.00 | 99 | 1022.8 |
| 20260902223246 | 17 | 346 | 1.6 | 3.2 | 0.00 | 0.00 | 0.00 | 99 | 1022.8 |
| 20260902222744 | 18 | 342 | 1.6 | 1.6 | 0.00 | 0.00 | 0.00 | 99 | 1023.1 |
| 20260902222245 | 18 | 347 | 1.6 | 1.6 | 0.00 | 0.00 | 0.00 | 98 | 1022.8 |
| 20260902221244 | 18 | 0.0 | 0.0 | 0.00 | 0.00 | 0.00 | 97 | 1023.1 | |
| 20260902220743 | 18 | 332 | 0.0 | 1.6 | 0.00 | 0.00 | 0.00 | 97 | 1023.1 |
| 20260902220244 | 18 | 332 | 1.6 | 1.6 | 0.00 | 0.00 | 0.00 | 96 | 1023.1 |
| 20260902215243 | 18 | 320 | 1.6 | 3.2 | 0.00 | 0.00 | 0.00 | 96 | 1023.1 |
| 20260902214742 | 18 | 319 | 0.0 | 1.6 | 0.00 | 0.00 | 0.00 | 97 | 1023.1 |
| 20260902214241 | 18 | 0.0 | 0.0 | 0.00 | 0.00 | 0.00 | 97 | 1022.8 | |
| 20260902213743 | 18 | 338 | 0.0 | 1.6 | 0.00 | 0.00 | 0.00 | 97 | 1023.1 |
| 20260902213241 | 18 | 323 | 1.6 | 1.6 | 0.00 | 0.00 | 0.00 | 97 | 1022.8 |
| 20260902212741 | 18 | 323 | 1.6 | 3.2 | 0.00 | 0.00 | 0.00 | 97 | 1022.8 |
| 20260902212242 | 18 | 334 | 0.0 | 1.6 | 0.00 | 0.00 | 0.00 | 97 | 1022.8 |
| 20260902211741 | 18 | 336 | 0.0 | 1.6 | 0.00 | 0.00 | 0.00 | 97 | 1022.8 |
| 20260902211242 | 18 | 342 | 1.6 | 1.6 | 0.00 | 0.00 | 0.00 | 96 | 1022.8 |
| 20260902210743 | 18 | 335 | 0.0 | 1.6 | 0.00 | 0.00 | 0.00 | 96 | 1022.8 |
| 20260902210241 | 18 | 0.0 | 0.0 | 0.00 | 0.00 | 0.00 | 97 | 1023.1 | |
| 20260902205740 | 18 | 335 | 1.6 | 1.6 | 0.00 | 0.00 | 0.00 | 96 | 1023.1 |
| 20260902205239 | 18 | 325 | 1.6 | 3.2 | 0.00 | 0.00 | 0.00 | 96 | 1023.1 |
| 20260902204738 | 18 | 294 | 0.0 | 1.6 | 0.00 | 0.00 | 0.00 | 95 | 1022.9 |
| 20260902204239 | 18 | 329 | 0.0 | 1.6 | 0.00 | 0.00 | 0.00 | 97 | 1022.9 |
| 20260902203739 | 18 | 350 | 1.6 | 3.2 | 0.00 | 0.00 | 0.00 | 97 | 1022.8 |
| 20260902203238 | 18 | 332 | 0.0 | 1.6 | 0.00 | 0.00 | 0.00 | 96 | 1022.8 |
| 20260902202839 | 18 | 358 | 3.2 | 3.2 | 0.00 | 0.00 | 0.00 | 95 | 1022.8 |
| 20260902202238 | 18 | 320 | 1.6 | 3.2 | 0.00 | 0.00 | 0.00 | 95 | 1022.8 |
| 20260902201738 | 18 | 0.0 | 0.0 | 0.00 | 0.00 | 0.00 | 96 | 1022.8 | |
| 20260902201237 | 18 | 348 | 3.2 | 3.2 | 0.00 | 0.00 | 0.00 | 95 | 1023.1 |
| 20260902200736 | 18 | 334 | 1.6 | 3.2 | 0.00 | 0.00 | 0.00 | 95 | 1023.1 |
| 20260902200237 | 18 | 355 | 3.2 | 4.8 | 0.00 | 0.00 | 0.00 | 94 | 1023.1 |
| 20260902195736 | 18 | 170 | 6.4 | 9.7 | 0.00 | 0.00 | 0.00 | 94 | 1023.1 |
| 20260902195235 | 18 | 156 | 6.4 | 8.0 | 0.00 | 0.00 | 0.00 | 94 | 1023.1 |
| 20260902194235 | 18 | 25 | 4.8 | 4.8 | 0.00 | 0.00 | 0.00 | 93 | 1023.5 |
| 20260902193735 | 18 | 138 | 8.0 | 9.7 | 0.00 | 0.00 | 0.00 | 92 | 1023.5 |
| 20260902193336 | 18 | 133 | 8.0 | 12.9 | 0.00 | 0.00 | 0.00 | 92 | 1023.5 |
| 20260902192733 | 19 | 145 | 11.3 | 16.1 | 0.00 | 0.00 | 0.00 | 91 | 1023.1 |
| 20260902192232 | 19 | 204 | 6.4 | 11.3 | 0.00 | 0.00 | 0.00 | 91 | 1023.1 |
| 20260902191733 | 18 | 156 | 8.0 | 12.9 | 0.00 | 0.00 | 0.00 | 93 | 1023.5 |
| 20260902191233 | 18 | 139 | 9.7 | 14.5 | 0.00 | 0.00 | 0.00 | 94 | 1023.8 |
| 20260902190731 | 18 | 151 | 8.0 | 12.9 | 0.00 | 0.00 | 0.00 | 93 | 1023.6 |
| 20260902190231 | 18 | 20 | 3.2 | 4.8 | 0.00 | 0.00 | 0.00 | 94 | 1023.8 |
| 20260902185732 | 18 | 161 | 4.8 | 8.0 | 0.00 | 0.00 | 0.00 | 93 | 1023.5 |
| 20260902185231 | 18 | 146 | 6.4 | 9.7 | 0.00 | 0.00 | 0.00 | 93 | 1023.8 |
| 20260902184730 | 18 | 42 | 4.8 | 4.8 | 0.00 | 0.00 | 0.00 | 93 | 1023.5 |
| 20260902184229 | 18 | 324 | 3.2 | 4.8 | 0.00 | 0.00 | 0.00 | 94 | 1023.8 |
| 20260902183731 | 18 | 255 | 4.8 | 4.8 | 0.00 | 0.00 | 0.00 | 95 | 1023.8 |
| 20260902183230 | 18 | 299 | 4.8 | 4.8 | 0.00 | 0.00 | 0.00 | 95 | 1023.8 |